Amritsar, India

5:48 AM IST on February 08, 2016 (GMT +0530)
Amritsar

Weather History for VIAR - September, 2012

Change the Weather History Date:

Tuesday, September 25, 2012

  Actual Average Record
Temperature  
Mean Temperature 80 °F -  
Max Temperature 92 °F 90 °F 96 °F (1997)
Min Temperature 69 °F 70 °F 46 °F (2005)
Cooling Degree Days 16    
Growing Degree Days 30 (Base 50)    
Moisture  
Dew Point 74 °F    
Average Humidity 80    
Maximum Humidity 100    
Minimum Humidity 38    
Precipitation  
Precipitation 0.00 in - - ()
Sea Level Pressure  
Sea Level Pressure 29.74 in    
Wind  
Wind Speed 1 mph ()    
Max Wind Speed 34 mph    
Max Gust Speed -    
Visibility 2.5 miles    
Events      
Averages and records for this station are not official NWS values.
T = Trace of Precipitation, MM = Missing Value Source: Averaged Metar Reports

Daily Weather History Graph

Daily Weather History Graph

Search for Another Location

Airport or City:

Trip Planner

Search our weather history database for the weather conditions in past years. The results will help you decide how hot, cold, wet, or windy it might be!

Date:

Astronomy

Sep. 25, 2012 Rise Set
Actual Time 6:20 AM IST 6:23 PM IST
Civil Twilight 5:56 AM IST 6:47 PM IST
Nautical Twilight 5:28 AM IST 7:15 PM IST
Astronomical Twilight 4:59 AM IST 7:44 PM IST
Moon 3:16 PM IST (9/25) 1:28 AM IST (9/25)
Length of Visible Light 12h 51m
Length of Day
12h 02m
Waxing Gibbous, 76% of the Moon is Illuminated
Sep 25
Waxing Gibbous
Sep 30
Full
Oct 8
Last Quarter
Oct 15
New
Oct 22
First Quarter

Hourly Weather History & Observations

Time (IST) Temp. Heat Index Dew Point Humidity Pressure Visibility Wind Dir Wind Speed Gust Speed Precip Events Conditions
12:00 AM 77.0 °F - 75.2 °F 94% 29.71 in 2.2 mi Calm Calm - N/A   Mist
12:30 AM 75.2 °F - 75.2 °F 100% 29.71 in 2.2 mi Calm Calm - N/A   Mist
1:00 AM 75.2 °F - 75.2 °F 100% 29.71 in 2.2 mi Calm Calm - N/A   Mist
1:30 AM 75.2 °F - 75.2 °F 100% 29.68 in 2.2 mi Calm Calm - N/A   Mist
2:00 AM 75.2 °F - 75.2 °F 100% 29.68 in 2.2 mi Calm Calm - N/A   Mist
2:30 AM 75 °F - 75 °F 99% 29.66 in 1 mi Calm Calm - -   Mist
2:30 AM 75.2 °F - 73.4 °F 94% 29.68 in 2.2 mi Calm Calm - N/A   Mist
3:00 AM 75.2 °F - 75.2 °F 100% 29.68 in 2.2 mi Calm Calm - N/A   Mist
3:30 AM 75.2 °F - 73.4 °F 94% 29.68 in 2.2 mi Calm Calm - N/A   Mist
4:00 AM 73.4 °F - 73.4 °F 100% 29.68 in 2.2 mi Calm Calm - N/A   Mist
4:30 AM 71.6 °F - 71.6 °F 100% 29.71 in 2.2 mi Variable 1.2 mph - N/A   Mist
5:00 AM 71.6 °F - 71.6 °F 100% 29.71 in 2.2 mi Calm Calm - N/A   Mist
5:30 AM 71.6 °F - 71.6 °F 100% 29.71 in 2.2 mi Calm Calm - N/A   Mist
6:00 AM 71.6 °F - 71.6 °F 100% 29.71 in 2.2 mi Calm Calm - N/A   Mist
6:30 AM 71.6 °F - 71.6 °F 100% 29.71 in 1.4 mi Calm Calm - N/A   Mist
7:00 AM 71.6 °F - 71.6 °F 100% 29.74 in 1.2 mi Calm Calm - N/A   Mist
7:30 AM 73.4 °F - 73.4 °F 100% 29.74 in 1.4 mi Calm Calm - N/A   Mist
8:00 AM 77.0 °F - 77.0 °F 100% 29.74 in 1.2 mi Calm Calm - N/A   Mist
8:30 AM 78 °F - 77 °F 96% 29.73 in 1 mi Calm Calm - -   Mist
8:30 AM 78.8 °F - 77.0 °F 94% 29.77 in 1.4 mi Calm Calm - N/A   Mist
9:00 AM 80.6 °F 87.1 °F 77.0 °F 89% 29.77 in 1.9 mi Calm Calm - N/A   Mist
9:30 AM 82.4 °F 90.9 °F 77.0 °F 84% 29.77 in 2.2 mi Variable 2.3 mph - N/A   Mist
10:00 AM 84.2 °F 90.9 °F 73.4 °F 70% 29.80 in 2.5 mi Calm Calm - N/A   Haze
10:30 AM 86.0 °F 91.8 °F 71.6 °F 62% 29.80 in 2.5 mi Calm Calm - N/A   Haze
11:30 AM 89 °F - 71 °F 47% 29.75 in 2 mi Calm Calm - -   Haze
11:30 AM 89.6 °F 96.2 °F 71.6 °F 55% 29.80 in 3.1 mi Calm Calm - N/A   Haze
12:00 PM 89.6 °F 94.7 °F 69.8 °F 52% 29.80 in 3.7 mi Calm Calm - N/A   Unknown
12:30 PM 89.6 °F 96.2 °F 71.6 °F 55% 29.77 in 3.7 mi Variable 2.3 mph - N/A   Unknown
1:00 PM 89.6 °F 94.7 °F 69.8 °F 52% 29.77 in 3.7 mi Variable 2.3 mph - N/A   Unknown
1:30 PM 89.6 °F 92.2 °F 66.2 °F 46% 29.77 in 3.7 mi West 3.5 mph - N/A   Unknown
2:00 PM 91.4 °F 94.0 °F 66.2 °F 43% 29.77 in 3.7 mi Calm Calm - N/A   Unknown
2:30 PM 91 °F - 69 °F 38% 29.71 in 2 mi SW 2.3 mph - -  
2:30 PM 91.4 °F 95.4 °F 68.0 °F 46% 29.74 in 3.7 mi Variable 2.3 mph - N/A   Unknown
3:00 PM 89.6 °F 94.7 °F 69.8 °F 52% 29.74 in 3.7 mi Variable 3.5 mph - N/A   Unknown
3:30 PM 89.6 °F 96.2 °F 71.6 °F 55% 29.74 in 3.7 mi West 4.6 mph - N/A   Unknown
4:00 PM 89.6 °F 96.2 °F 71.6 °F 55% 29.74 in 3.7 mi Variable 2.3 mph - N/A   Unknown
4:30 PM 89.6 °F 96.2 °F 71.6 °F 55% 29.74 in 3.7 mi West 3.5 mph - N/A   Unknown
5:00 PM 89.6 °F 98.2 °F 73.4 °F 59% 29.71 in 3.7 mi WSW 34.5 mph - N/A   Unknown
5:30 PM 88 °F - 75 °F 57% 29.68 in 2 mi 2.3 mph - -  
5:30 PM 87.8 °F 97.6 °F 75.2 °F 66% 29.71 in 3.7 mi Variable 2.3 mph - N/A   Unknown
6:00 PM 86.0 °F 95.1 °F 75.2 °F 70% 29.71 in 3.1 mi Calm Calm - N/A   Haze
6:30 PM 86.0 °F 93.4 °F 73.4 °F 66% 29.74 in 3.1 mi Calm Calm - N/A   Haze
7:00 PM 82.4 °F 89.5 °F 75.2 °F 79% 29.74 in 3.1 mi Calm Calm - N/A   Haze
7:30 PM 82.4 °F 92.4 °F 78.8 °F 89% 29.74 in 3.1 mi Calm Calm - N/A   Haze
8:00 PM 80.6 °F 87.1 °F 77.0 °F 89% 29.74 in 2.5 mi Calm Calm - N/A   Haze
8:30 PM 80 °F - 77 °F 87% 29.72 in 1 mi Calm Calm - -   Mist
8:30 PM 80.6 °F 87.1 °F 77.0 °F 89% 29.77 in 2.5 mi Calm Calm - N/A   Mist
9:00 PM 78.8 °F - 77.0 °F 94% 29.77 in 2.5 mi Calm Calm - N/A   Mist
9:30 PM 78.8 °F - 77.0 °F 94% 29.77 in 2.5 mi Calm Calm - N/A   Mist
10:00 PM 78.8 °F - 77.0 °F 94% 29.77 in 2.5 mi Calm Calm - N/A   Mist
10:30 PM 78.8 °F - 77.0 °F 94% 29.77 in 2.5 mi Calm Calm - N/A   Mist
11:00 PM 77.0 °F - 77.0 °F 100% 29.77 in 1.9 mi Calm Calm - N/A   Mist
11:30 PM 77.0 °F - 75.2 °F 94% 29.80 in 1.9 mi Calm Calm - N/A   Mist